Location: LDNL
(36.4545°S, 141.6685°E)
Time: 16:08:27
(UTC+10:00)

Courier 1B Rocket - Pass Details

Date: 18 August 2022
Orbit: 920 x 1202 km, 28.2° (Epoch: 25 September)

Event Time Altitude Azimuth Distance (km) Brightness Sun altitude
Exits shadow 02:54:33 12° 77° (ENE) 3,015 7.8 -51.5°
Drops below altitude 10° 02:54:59 10° 78° (ENE) 3,141 7.9 -51.5°
Sets 02:58:01 0° 85° (E) 4,097 8.7 -50.9°
